Find Starlink 2400

NORAD ID: 47817 Int'l Des: 2021-018 Owner: SPXS Country: US Constellation: starlink operational
LEOCIRCULAR

实时位置

正在加载3D地球...

关于 Starlink 2400

正在加载描述...

即将过境

Passes for default location (London). Set your location on the main map for personalized predictions.

高度历史

Loading altitude history...

两行轨道根数

1 47817U 21018AG 26106.00002315 -.00012655 00000-0 -39663-3 0 9996
2 47817 53.1611 69.7730 0001413 90.6811 77.8627 15.31707121 5877
Epoch: Apr 16, 2026 • Age: 11 hours

当前状态

高度 486.7 km
速度 7.62 km/s
星下点 -44.63°S, 78.85°W
发射日期 Mar 11, 2021
运行时间 5 years
类型 internet

技术详情

分类 Payload
质量 260.00 kg
干质量 248.00 kg
总质量 260.00 kg
长度 0.20 m
直径 2.80 m
跨度 9.00 m
形状 Box + pan
制造商 SPXS
平台类型 Starlink
阶段状态 In Orbit
所有者/国家 SPXS/US

Most Searched